Home > Weather > Nablus > Past weeks

Flag for Palestinian Territories Weather for the Past 2 Weeks in Nablus, West Bank, Palestinian Territories

Now
72 °F

Passing clouds.


Feels Like: 77 °F
Forecast: 43 / 71 °F
Wind: 5 mph from West

Location: Ben Gurion International Airport

Current Time: Feb 14, 2016 at 1:00:04 PM

Latest Report: Feb 14, 2016 at 12:20 PM


Visibility: N/A

Pressure: 30.12 "Hg (28.31 "Hg at 534m altitude)

Humidity: 50%

Dew point: 52 °F

Location of NablusLocation

Historic Weather in Nablus — Graph

°F

Nablus Temperature Yesterday

Maximum temperature yesterday: 72 °F (at 3:50 PM)
Minimum temperature yesterday: 45 °F (at 5:50 AM)
Average temperature yesterday: 59 °F

High & Low Weather Summary for the Past Weeks

 TemperatureHumidityPressure
High75 °F (Feb 4, 2:20 PM)94% (Feb 3, 6:50 AM)30.36 "Hg (Feb 3, 6:50 AM)
Low37 °F (Jan 31, 6:20 AM)21% (Feb 4, 2:20 PM)29.92 "Hg (Feb 5, 1:20 PM)
Average56 °F71%30.16 "Hg
* Reported Jan 30 11:20 AM — Feb 14 11:50 AM, Nablus, Weather by CustomWeather, © 2016

Note: Actual official high and low records may vary slightly from our data, if they occured in-between our weather recording intervals... More about our weather records

Advertising

Nablus Weather History for the Previous 24 Hours

 ConditionsComfort  
Time TempWeatherWind HumidityBarometerVisibility
11:50 AM
Sun, Feb 14
70 °FPassing clouds.6 mph53%30.12 "HgN/A
11:20 AM68 °FSunny.9 mph56%30.12 "Hg10 mi
10:50 AM68 °FSunny.5 mph53%30.12 "Hg10 mi
10:20 AM66 °FSunny.3 mph60%30.15 "Hg10 mi
9:20 AM63 °FSunny.1 mph59%30.15 "Hg10 mi
8:50 AM59 °FSunny.1 mph63%30.15 "Hg10 mi
8:20 AM55 °FSunny.2 mph72%30.15 "Hg10 mi
7:50 AM54 °FSunny.3 mph72%30.15 "Hg10 mi
7:20 AM52 °FSunny.5 mph77%30.12 "Hg10 mi
6:50 AM50 °FSunny.3 mph82%30.12 "Hg10 mi
6:20 AM48 °FClear.1 mph87%30.12 "Hg6 mi
5:50 AM48 °FClear.1 mph87%30.12 "Hg6 mi
5:20 AM50 °FClear.3 mph88%30.09 "Hg6 mi
4:50 AM50 °FClear.5 mph88%30.09 "Hg6 mi
4:20 AM50 °FClear.2 mph88%30.09 "Hg6 mi
3:20 AM50 °FClear.2 mph88%30.09 "Hg6 mi
2:50 AM50 °FClear.1 mph94%30.09 "Hg6 mi
2:20 AM50 °FClear.1 mph94%30.09 "Hg5 mi
1:50 AM52 °FClear.2 mph88%30.09 "Hg5 mi
1:20 AM52 °FClear.1 mph94%30.09 "Hg6 mi
12:50 AM52 °FClear.1 mph94%30.09 "Hg6 mi
12:20 AM52 °FClear.1 mph94%30.09 "Hg6 mi
11:50 PM
Sat, Feb 13
54 °FClear.1 mph88%30.09 "Hg6 mi
11:20 PM55 °FClear.3 mph88%30.09 "Hg6 mi
10:50 PM55 °FClear.5 mph88%30.09 "Hg6 mi
10:20 PM55 °FClear.2 mph88%30.09 "Hg6 mi
9:50 PM55 °FClear.1 mph88%30.09 "Hg6 mi
9:20 PM55 °FClear.1 mph88%30.09 "Hg6 mi
8:50 PM61 °FClear.3 mph83%30.09 "Hg6 mi
8:20 PM61 °FClear.3 mph83%30.09 "Hg10 mi
7:50 PM61 °FClear.3 mph83%30.09 "Hg10 mi
7:20 PM59 °FClear.1 mph88%30.09 "Hg10 mi
6:50 PM61 °FClear.3 mph83%30.09 "Hg10 mi
6:20 PM63 °FClear.6 mph77%30.07 "Hg10 mi
5:50 PM63 °FClear.7 mph77%30.07 "Hg10 mi
5:20 PM63 °FSunny.8 mph77%30.07 "Hg10 mi
4:50 PM68 °FSunny.7 mph56%30.04 "Hg10 mi
4:20 PM70 °FSunny.3 mph50%30.04 "Hg10 mi
3:50 PM72 °FSunny.3 mph47%30.04 "Hg10 mi
3:20 PM70 °FSunny.2 mph50%30.04 "Hg10 mi
2:50 PM70 °FSunny.3 mph50%30.07 "Hg10 mi
2:20 PM68 °FSunny.5 mph60%30.07 "Hg10 mi
1:50 PM68 °FSunny.6 mph56%30.07 "Hg10 mi
1:20 PM68 °FSunny.7 mph49%30.07 "Hg10 mi
Weather by CustomWeather, © 2016

See weather overviewHow to use our weather pages